TimeCDT,TemperatureF,Dew PointF,Humidity,Sea Level PressureIn,VisibilityMPH,Wind Direction,Wind SpeedMPH,Gust SpeedMPH,PrecipitationIn,Events,Conditions,WindDirDegrees,DateUTC
12:54 AM,54.0,37.9,55,29.81,10.0,SW,8.1,-,N/A,,Clear,220,2013-05-15 05:54:00
1:54 AM,54.0,37.9,55,29.82,10.0,SW,9.2,-,N/A,,Clear,230,2013-05-15 06:54:00
2:54 AM,54.0,37.9,55,29.83,10.0,SW,10.4,-,N/A,,Clear,230,2013-05-15 07:54:00
3:54 AM,55.0,37.9,53,29.82,10.0,SW,9.2,-,N/A,,Clear,230,2013-05-15 08:54:00
4:54 AM,53.1,39.0,59,29.84,10.0,SW,6.9,-,N/A,,Clear,230,2013-05-15 09:54:00
5:54 AM,51.1,39.0,63,29.85,10.0,WSW,8.1,-,N/A,,Clear,240,2013-05-15 10:54:00
6:54 AM,50.0,39.9,68,29.86,10.0,SW,8.1,-,N/A,,Clear,230,2013-05-15 11:54:00
7:54 AM,55.9,39.9,55,29.87,10.0,WSW,5.8,-,N/A,,Clear,250,2013-05-15 12:54:00
8:54 AM,61.0,41.0,48,29.88,10.0,WNW,13.8,-,N/A,,Clear,300,2013-05-15 13:54:00
9:54 AM,64.9,39.9,40,29.89,10.0,West,10.4,-,N/A,,Clear,280,2013-05-15 14:54:00
10:54 AM,69.1,39.0,33,29.88,10.0,West,9.2,-,N/A,,Clear,280,2013-05-15 15:54:00
11:54 AM,70.0,37.0,30,29.88,10.0,West,11.5,19.6,N/A,,Clear,270,2013-05-15 16:54:00
12:54 PM,73.0,36.0,26,29.87,10.0,WNW,15.0,25.3,N/A,,Clear,300,2013-05-15 17:54:00
1:54 PM,73.9,35.1,24,29.87,10.0,West,18.4,26.5,N/A,,Scattered Clouds,260,2013-05-15 18:54:00
2:54 PM,73.9,34.0,23,29.86,10.0,WNW,16.1,23.0,N/A,,Partly Cloudy,300,2013-05-15 19:54:00
3:54 PM,73.0,34.0,24,29.86,10.0,West,11.5,19.6,N/A,,Partly Cloudy,280,2013-05-15 20:54:00
4:54 PM,73.9,33.1,22,29.84,10.0,West,12.7,-,N/A,,Partly Cloudy,280,2013-05-15 21:54:00
5:54 PM,75.0,34.0,22,29.84,10.0,WNW,12.7,17.3,N/A,,Scattered Clouds,290,2013-05-15 22:54:00
6:54 PM,72.0,36.0,27,29.85,10.0,WNW,9.2,-,N/A,,Clear,300,2013-05-15 23:54:00
7:54 PM,70.0,36.0,29,29.85,7.0,NW,9.2,-,N/A,,Clear,310,2013-05-16 00:54:00
8:54 PM,68.0,37.0,32,29.85,10.0,WNW,5.8,-,N/A,,Clear,290,2013-05-16 01:54:00
9:54 PM,57.9,39.0,49,29.86,10.0,WNW,6.9,-,N/A,,Clear,290,2013-05-16 02:54:00
10:54 PM,57.9,37.9,47,29.87,10.0,SW,6.9,-,N/A,,Clear,230,2013-05-16 03:54:00
11:54 PM,57.0,36.0,45,29.87,10.0,SW,8.1,-,N/A,,Clear,230,2013-05-16 04:54:00